カタログに戻る

FENGYUN 1C DEB

運用中PO
NORAD 33733·DEBRIS·🇨🇳 China

打ち上げ May 10, 1999 から Taiyuan Satellite Launch Center

Loading…

次のパス (今後24時間)

TLE

最新Source: Space-Track

元期: Sep 13, 2026, 05:32 UTC

1 33733U 99025DHW 26256.23090421  .00004705  00000-0  16155-2 0  9992
2 33733  99.0980   0.3701 0074448  92.4802 298.3400 14.35033711943807

AllMySatでFENGYUN 1C DEBをリアルタイム追跡

Download on the App Store